N1OTX Weather Reports


time (UTC)temp
C
wind
direction
speed
KPH
gust
KPH
rain 1hr
cm
rain 24hr
cm
rain mn
cm
humidity
%
barometer
mb
20260906154521 18 49 0.0 3.2 0.00 0.64 0.64 76 1015.2
20260906154021 18 344 0.0 1.6 0.00 0.64 0.64 75 1015.3
20260906153523 19 45 1.6 3.2 0.00 0.64 0.64 73 1015.4
20260906152022 18 351 1.6 3.2 0.00 0.64 0.64 77 1015.3
20260906151522 18 356 0.0 4.8 0.00 0.64 0.64 78 1015.5
20260906151022 18 311 1.6 3.2 0.00 0.64 0.64 80 1015.4
20260906150542 18 336 1.6 4.8 0.00 0.64 0.64 80 1015.5
20260906150021 18 349 1.6 6.4 0.00 0.64 0.64 77 1015.6
20260906145521 17 345 1.6 6.4 0.00 0.64 0.64 82 1015.7
20260906145023 17 48 1.6 9.7 0.00 0.64 0.64 82 1015.7
20260906144523 17 49 0.0 1.6 0.00 0.64 0.64 83 1015.7
20260906144022 17 48 0.0 6.4 0.00 0.64 0.64 81 1015.6
20260906143522 17 25 1.6 6.4 0.00 0.64 0.64 82 1015.6
20260906143022 16 59 1.6 4.8 0.00 0.64 0.64 82 1015.6
20260906142542 16 338 1.6 4.8 0.00 0.64 0.64 81 1015.6
20260906142021 17 32 1.6 3.2 0.00 0.64 0.64 80 1015.5
20260906141521 17 358 1.6 4.8 0.00 0.64 0.64 80 1015.4
20260906141023 17 77 1.6 4.8 0.00 0.64 0.64 79 1015.4
20260906140523 17 88 1.6 9.7 0.00 0.64 0.64 82 1015.4
20260906140023 17 20 1.6 6.4 0.00 0.64 0.64 85 1015.5
20260906135522 17 64 1.6 4.8 0.00 0.64 0.64 85 1015.3
20260906135022 16 345 0.0 3.2 0.00 0.64 0.64 85 1015.3
20260906134542 16 76 1.6 6.4 0.00 0.64 0.64 88 1015.4
20260906134022 16 56 1.6 6.4 0.00 0.64 0.64 88 1015.5
20260906133521 16 311 1.6 4.8 0.00 0.64 0.64 88 1015.4
20260906133021 16 304 1.6 3.2 0.00 0.64 0.64 88 1015.3
20260906132523 16 317 1.6 6.4 0.00 0.64 0.64 90 1015.4
20260906132024 16 27 1.6 6.4 0.00 0.64 0.64 91 1015.5
20260906131522 16 48 0.0 3.2 0.00 0.64 0.64 90 1015.5
20260906131022 16 322 0.0 3.2 0.00 0.64 0.64 90 1015.4
20260906130522 16 347 0.0 3.2 0.00 0.64 0.64 91 1015.5
20260906130022 16 7 0.0 1.6 0.00 0.64 0.64 92 1015.5
20260906125521 16 12 0.0 1.6 0.00 0.64 0.64 93 1015.5
20260906125023 16 13 0.0 1.6 0.00 0.64 0.64 94 1015.4
20260906124523 16 17 0.0 1.6 0.00 0.64 0.64 95 1015.5
20260906124022 15 8 0.0 4.8 0.00 0.64 0.64 95 1015.5
20260906123522 15 301 0.0 1.6 0.00 0.64 0.64 96 1015.5
20260906123022 15 140 0.0 1.6 0.00 0.64 0.64 97 1015.4
20260906122522 15 140 0.0 1.6 0.00 0.64 0.64 97 1015.4
20260906122022 15 140 0.0 1.6 0.00 0.64 0.64 98 1015.3
20260906121521 15 140 0.0 1.6 0.00 0.64 0.64 99 1015.1
20260906121021 15 0.0 0.0 0.00 0.64 0.64 99 1015.2
20260906120523 15 0.0 0.0 0.00 0.64 0.64 99 1015.2
20260906120023 15 0.0 1.6 0.00 0.64 0.64 99 1015.1
20260906115522 15 0.0 1.6 0.00 0.64 0.64 99 1015.0
20260906115042 15 140 0.0 1.6 0.00 0.64 0.64 99 1014.9
20260906114522 15 0.0 0.0 0.00 0.64 0.64 99 1014.9
20260906114042 15 0.0 0.0 0.00 0.64 0.64 99 1014.9
20260906113521 15 0.0 0.0 0.00 0.64 0.64 99 1014.7
20260906113021 15 0.0 0.0 0.00 0.64 0.64 99 1014.6
20260906112521 14 0.0 0.0 0.00 0.64 0.64 99 1014.6
20260906112043 15 0.0 0.0 0.00 0.64 0.64 99 1014.6
20260906111520 14 0.0 0.0 0.03 0.64 0.64 99 1014.5
20260906111022 14 0.0 0.0 0.03 0.64 0.64 99 1014.6
20260906110522 14 0.0 0.0 0.03 0.64 0.64 99 1014.5
20260906110022 14 0.0 0.0 0.03 0.64 0.64 99 1014.2
20260906105522 14 0.0 0.0 0.05 0.64 0.64 99 1014.2
20260906105041 14 0.0 0.0 0.05 0.64 0.64 99 1014.3
20260906104521 14 0.0 0.0 0.05 0.64 0.64 99 1014.2
20260906104021 14 0.0 0.0 0.05 0.64 0.64 99 1014.2
20260906103523 14 0.0 0.0 0.08 0.64 0.64 99 1014.1
20260906103023 14 0.0 0.0 0.08 0.64 0.64 99 1014.2
20260906102643 14 0.0 0.0 0.10 0.64 0.64 99 1014.0
20260906102022 14 0.0 0.0 0.10 0.64 0.64 99 1014.0
20260906101522 14 0.0 0.0 0.10 0.61 0.61 99 1014.0
20260906101022 14 0.0 0.0 0.10 0.61 0.61 99 1014.0
20260906100541 14 0.0 0.0 0.13 0.61 0.61 99 1014.0
20260906100021 14 0.0 0.0 0.10 0.61 0.61 99 1013.9
20260906095523 14 0.0 0.0 0.08 0.58 0.58 99 1013.9
20260906095023 14 0.0 0.0 0.08 0.56 0.56 99 1013.8
20260906094547 14 0.0 0.0 0.10 0.56 0.56 99 1014.0
20260906094022 14 0.0 0.0 0.10 0.56 0.56 99 1013.9
20260906093522 14 140 0.0 1.6 0.15 0.56 0.56 99 1013.9
20260906093021 14 0.0 0.0 0.18 0.56 0.56 99 1013.8
20260906092522 15 140 0.0 1.6 0.15 0.53 0.53 99 1013.7
20260906092021 15 0.0 0.0 0.15 0.53 0.53 99 1013.6
20260906091521 15 0.0 0.0 0.15 0.53 0.53 99 1013.6
20260906091021 15 0.0 0.0 0.13 0.51 0.51 99 1013.5
20260906090521 15 142 0.0 1.6 0.15 0.51 0.51 99 1013.5
20260906090022 15 140 0.0 1.6 0.15 0.51 0.51 99 1013.4
20260906085522 15 0.0 0.0 0.20 0.51 0.51 99 1013.4
20260906085022 15 0.0 0.0 0.23 0.48 0.48 99 1013.5
20260906084522 15 0.0 0.0 0.25 0.48 0.48 99 1013.6
20260906084022 15 0.0 0.0 0.30 0.48 0.48 99 1013.7
20260906083521 15 0.0 0.0 0.25 0.41 0.41 99 1013.6
20260906083021 15 140 0.0 1.6 0.28 0.38 0.38 99 1013.5
20260906082521 15 0.0 0.0 0.30 0.38 0.38 99 1013.2
20260906082021 15 0.0 0.0 0.30 0.38 0.38 99 1013.2
20260906081522 15 0.0 0.0 0.33 0.38 0.38 98 1013.1
20260906081022 15 0.0 0.0 0.33 0.38 0.38 98 1013.1
20260906080522 14 0.0 0.0 0.33 0.36 0.36 97 1013.0
20260906080021 14 0.0 0.0 0.33 0.33 0.33 97 1013.0
20260906075521 15 0.0 0.0 0.28 0.30 0.30 97 1013.1
20260906075021 15 0.0 0.0 0.23 0.25 0.25 96 1013.0
20260906074523 15 0.0 0.0 0.20 0.23 0.23 95 1013.0
20260906074022 15 140 0.0 1.6 0.15 0.18 0.18 94 1013.1
20260906073523 15 139 0.0 4.8 0.13 0.15 0.15 92 1013.0
20260906073022 15 136 1.6 4.8 0.10 0.10 0.10 91 1013.1
20260906072522 16 101 3.2 9.7 0.08 0.10 0.10 94 1013.1
20260906072022 16 103 1.6 9.7 0.05 0.08 0.08 97 1013.0
20260906071522 16 0.0 1.6 0.05 0.05 0.05 97 1012.8
20260906071041 16 111 0.0 1.6 0.03 0.05 0.05 97 1012.9
20260906070521 16 111 0.0 1.6 0.03 0.03 0.03 97 1012.7
20260906070021 16 0.0 0.0 0.03 0.03 0.03 97 1012.8
20260906065521 16 0.0 0.0 0.03 0.03 0.03 97 1012.8
20260906065021 16 0.0 0.0 0.03 0.03 0.03 97 1012.7
20260906064522 16 0.0 0.0 0.00 0.00 0.00 97 1012.7
20260906064022 16 0.0 0.0 0.00 0.00 0.00 97 1012.9
20260906063522 16 0.0 0.0 0.00 0.00 0.00 97 1012.8
20260906063021 16 0.0 0.0 0.00 0.00 0.00 98 1012.9
20260906062522 16 0.0 0.0 0.00 0.00 0.00 98 1012.8
20260906062102 16 0.0 0.0 0.00 0.00 0.00 98 1012.8
20260906061542 16 0.0 0.0 0.00 0.00 0.00 98 1012.7
20260906061042 16 0.0 0.0 0.00 0.00 0.00 98 1012.7
20260906060521 16 0.0 0.0 0.00 0.00 0.00 97 1012.9
20260906060021 16 0.0 0.0 0.00 0.00 0.00 97 1012.8
20260906055521 16 0.0 0.0 0.00 0.00 0.00 97 1012.9
20260906055021 16 0.0 0.0 0.00 0.00 0.00 97 1012.9
20260906054520 16 0.0 0.0 0.00 0.00 0.00 97 1012.8
20260906054042 16 0.0 0.0 0.00 0.00 0.00 97 1012.8
20260906053521 16 0.0 0.0 0.00 0.00 0.00 97 1012.8
20260906053021 16 0.0 0.0 0.00 0.00 0.00 97 1012.7
20260906052601 16 0.0 0.0 0.00 0.00 0.00 97 1012.8
20260906052022 16 0.0 0.0 0.00 0.00 0.00 97 1012.9
20260906051522 16 0.0 0.0 0.00 0.00 0.00 97 1012.9
20260906051022 16 0.0 0.0 0.00 0.00 0.00 97 1013.0
20260906050522 16 0.0 0.0 0.00 0.00 0.00 96 1013.1
20260906050021 16 0.0 0.0 0.00 0.00 0.00 96 1013.1
20260906045526 16 0.0 0.0 0.00 0.00 0.00 96 1013.1
20260906045021 16 0.0 0.0 0.00 0.00 0.00 96 1013.1
20260906044520 16 0.0 0.0 0.00 0.00 0.00 96 1013.2
20260906044020 16 0.0 0.0 0.00 0.00 0.00 96 1013.1
20260906043524 16 0.0 0.0 0.00 0.00 0.00 95 1013.0
20260906043022 16 0.0 0.0 0.00 0.00 0.00 95 1013.0
20260906042522 16 0.0 0.0 0.00 0.00 0.00 95 1012.9
20260906042021 16 0.0 0.0 0.00 0.00 0.00 95 1012.9
20260906041521 16 0.0 0.0 0.00 0.00 0.00 95 1013.0
20260906041023 16 0.0 0.0 0.00 0.00 0.00 95 1012.9
20260906040543 16 0.0 0.0 0.00 0.00 0.00 95 1012.9
20260906040023 16 0.0 0.0 0.00 0.00 0.00 96 1012.9
20260906035522 16 0.0 0.0 0.00 0.00 0.00 96 1012.8
20260906035022 16 0.0 0.0 0.00 0.00 0.00 95 1012.9
20260906034522 16 0.0 0.0 0.00 0.00 0.00 95 1012.7
20260906034042 16 0.0 0.0 0.00 0.00 0.00 95 1012.9
20260906033521 16 0.0 0.0 0.00 0.00 0.00 95 1012.8
20260906033023 16 0.0 0.0 0.00 0.00 0.00 94 1012.6
20260906032523 16 0.0 0.0 0.00 0.00 0.00 94 1012.8
20260906032023 16 0.0 0.0 0.00 0.00 0.00 94 1012.7
20260906031543 16 0.0 0.0 0.00 0.00 0.00 93 1012.5
20260906031022 16 0.0 0.0 0.00 0.00 0.00 93 1012.6
20260906030522 16 0.0 0.0 0.00 0.00 0.00 93 1012.7
20260906030024 16 0.0 0.0 0.00 0.00 0.00 92 1012.5
20260906025521 16 111 0.0 1.6 0.00 0.00 0.00 91 1012.6
20260906025021 16 0.0 1.6 0.00 0.00 0.00 91 1012.6
20260906024523 17 111 0.0 1.6 0.00 0.00 0.00 90 1012.5
20260906024023 17 111 0.0 1.6 0.00 0.00 0.00 90 1012.6
20260906023543 17 111 0.0 1.6 0.00 0.00 0.00 90 1012.6
20260906023042 17 111 0.0 1.6 0.00 0.00 0.00 89 1012.6
20260906022522 17 111 0.0 1.6 0.00 0.00 0.00 88 1012.5
20260906022022 17 111 0.0 1.6 0.00 0.00 0.00 87 1012.5
20260906021541 17 0.0 0.0 0.00 0.00 0.00 86 1012.6
20260906021021 17 0.0 0.0 0.00 0.00 0.00 86 1012.8
20260906020543 17 0.0 0.0 0.00 0.00 0.00 86 1012.8
20260906020023 17 0.0 0.0 0.00 0.00 0.00 86 1012.8
20260906015522 17 0.0 0.0 0.00 0.00 0.00 86 1012.8
20260906015023 17 0.0 0.0 0.00 0.00 0.00 86 1012.6
20260906014547 17 0.0 0.0 0.00 0.00 0.00 86 1012.7
20260906014022 17 0.0 0.0 0.00 0.00 0.00 87 1012.8
20260906013542 17 110 0.0 1.6 0.00 0.00 0.00 86 1012.8
20260906013022 17 0.0 0.0 0.00 0.00 0.00 85 1012.7
20260906012521 17 0.0 0.0 0.00 0.00 0.00 85 1012.8
20260906012023 17 0.0 0.0 0.00 0.00 0.00 84 1012.7
20260906011521 17 0.0 0.0 0.00 0.00 0.00 83 1012.6
20260906011023 17 0.0 0.0 0.00 0.00 0.00 84 1012.7
20260906010522 17 0.0 0.0 0.00 0.00 0.00 83 1012.6
20260906010022 17 0.0 0.0 0.00 0.00 0.00 83 1012.6
20260906005522 17 0.0 0.0 0.00 0.00 0.00 83 1012.6
20260906005042 17 0.0 0.0 0.00 0.00 0.00 83 1012.6
20260906004522 17 0.0 0.0 0.00 0.00 0.00 83 1012.6
20260906004021 17 0.0 0.0 0.00 0.00 0.00 82 1012.4
20260906003521 17 0.0 0.0 0.00 0.00 0.00 82 1012.3
20260906003023 17 0.0 0.0 0.00 0.00 0.00 82 1012.3
20260906002523 17 0.0 0.0 0.00 0.00 0.00 82 1012.4
20260906002023 17 0.0 0.0 0.00 0.00 0.00 82 1012.3
20260906001522 17 0.0 0.0 0.00 0.00 0.00 82 1012.2
20260906001022 17 0.0 0.0 0.00 0.00 0.00 82 1012.2
20260906000521 17 0.0 0.0 0.00 0.00 0.00 81 1012.2
20260906000021 17 0.0 0.0 0.00 0.00 0.00 81 1012.1
20260905235521 17 0.0 0.0 0.00 0.00 0.00 80 1012.2
20260905235021 17 0.0 0.0 0.00 0.00 0.00 80 1012.2
20260905234523 17 0.0 0.0 0.00 0.00 0.00 80 1012.2
20260905234022 17 111 0.0 3.2 0.00 0.00 0.00 79 1012.2
20260905233523 17 110 0.0 3.2 0.00 0.00 0.00 79 1012.0
20260905233022 17 111 1.6 3.2 0.00 0.00 0.00 79 1012.0
20260905232522 17 111 1.6 3.2 0.00 0.00 0.00 79 1011.9
20260905232022 17 111 0.0 1.6 0.00 0.00 0.00 79 1011.9
20260905231521 18 118 1.6 4.8 0.00 0.00 0.00 79 1011.8
20260905231021 18 124 1.6 4.8 0.00 0.00 0.00 79 1011.8
20260905230521 18 120 1.6 4.8 0.00 0.00 0.00 79 1011.6
20260905230021 18 98 1.6 6.4 0.00 0.00 0.00 79 1011.6
20260905225523 18 133 3.2 6.4 0.00 0.00 0.00 79 1011.7
20260905225022 18 128 4.8 11.3 0.00 0.00 0.00 78 1011.6
20260905224522 18 136 4.8 12.9 0.00 0.00 0.00 78 1011.6
20260905224042 18 141 4.8 11.3 0.00 0.00 0.00 78 1011.6
20260905223521 18 125 4.8 9.7 0.00 0.00 0.00 77 1011.6
20260905223021 18 91 3.2 4.8 0.00 0.00 0.00 77 1011.6
20260905222521 18 61 0.0 1.6 0.00 0.00 0.00 76 1011.5
20260905222021 18 63 1.6 4.8 0.00 0.00 0.00 75 1011.5
20260905221522 18 74 1.6 4.8 0.00 0.00 0.00 76 1011.5
20260905221022 18 98 1.6 4.8 0.00 0.00 0.00 75 1011.5
20260905220522 18 87 1.6 4.8 0.00 0.00 0.00 75 1011.4
20260905220022 18 62 1.6 6.4 0.00 0.00 0.00 74 1011.3
20260905215522 19 98 3.2 6.4 0.00 0.00 0.00 74 1011.3
20260905215042 19 106 1.6 4.8 0.00 0.00 0.00 76 1011.3
20260905214521 19 67 1.6 9.7 0.00 0.00 0.00 77 1011.3
20260905214021 19 44 0.0 4.8 0.00 0.00 0.00 78 1011.2
20260905213523 19 61 1.6 6.4 0.00 0.00 0.00 77 1011.2
20260905213023 19 86 3.2 12.9 0.00 0.00 0.00 77 1011.1
20260905212522 19 86 1.6 4.8 0.00 0.00 0.00 77 1011.0
20260905212022 19 77 3.2 11.3 0.00 0.00 0.00 78 1011.0
20260905211522 19 105 4.8 11.3 0.00 0.00 0.00 79 1011.0
20260905211022 19 100 4.8 11.3 0.00 0.00 0.00 79 1011.0
20260905210521 19 93 6.4 12.9 0.00 0.00 0.00 78 1011.0
20260905210021 20 99 8.0 17.7 0.00 0.00 0.00 76 1011.0
20260905205523 20 102 4.8 12.9 0.00 0.00 0.00 75 1010.8
20260905205023 20 92 6.4 14.5 0.00 0.00 0.00 75 1010.9
20260905204523 20 90 4.8 16.1 0.00 0.00 0.00 75 1010.9
20260905204027 20 81 3.2 11.3 0.00 0.00 0.00 77 1010.7
20260905203522 20 101 6.4 12.9 0.00 0.00 0.00 76 1010.7
20260905203022 20 117 6.4 16.1 0.00 0.00 0.00 75 1010.6
20260905202521 20 112 4.8 14.5 0.00 0.00 0.00 75 1010.7
20260905202041 21 126 8.0 14.5 0.00 0.00 0.00 74 1010.7
20260905201521 21 84 8.0 16.1 0.00 0.00 0.00 72 1010.5
20260905201021 21 73 3.2 12.9 0.00 0.00 0.00 72 1010.5
20260905200523 21 73 4.8 12.9 0.00 0.00 0.00 70 1010.3
20260905200022 21 79 3.2 16.1 0.00 0.00 0.00 69 1010.1
20260905195543 21 85 8.0 17.7 0.00 0.00 0.00 68 1010.2
20260905195042 21 73 4.8 17.7 0.00 0.00 0.00 68 1010.1
20260905194522 22 97 4.8 9.7 0.00 0.00 0.00 70 1010.0
20260905194021 21 109 4.8 14.5 0.00 0.00 0.00 69 1010.2
20260905193541 21 104 3.2 20.9 0.00 0.00 0.00 70 1010.2
20260905193021 22 71 6.4 20.9 0.00 0.00 0.00 69 1010.3
20260905192523 22 107 6.4 14.5 0.00 0.00 0.00 69 1010.3
20260905192023 22 106 8.0 14.5 0.00 0.00 0.00 70 1010.3
20260905191520 22 106 6.4 16.1 0.00 0.00 0.00 70 1010.3
20260905191043 22 116 8.0 16.1 0.00 0.00 0.00 70 1010.2
20260905190522 21 86 6.4 12.9 0.00 0.00 0.00 72 1010.2
20260905190022 21 118 6.4 14.5 0.00 0.00 0.00 72 1010.3
20260905185541 21 103 6.4 14.5 0.00 0.00 0.00 71 1010.4
20260905185021 21 81 6.4 14.5 0.00 0.00 0.00 71 1010.3
20260905184521 21 104 8.0 16.1 0.00 0.00 0.00 72 1010.4
20260905184022 21 107 6.4 12.9 0.00 0.00 0.00 72 1010.4
20260905183523 21 99 8.0 16.1 0.00 0.00 0.00 72 1010.4
20260905183022 21 115 8.0 14.5 0.00 0.00 0.00 75 1010.4
20260905182042 20 78 1.6 4.8 0.00 0.00 0.00 77 1010.5
20260905181522 20 81 3.2 9.7 0.00 0.00 0.00 76 1010.5
20260905181021 20 91 4.8 16.1 0.00 0.00 0.00 77 1010.5
20260905180606 20 86 4.8 11.3 0.00 0.00 0.00 77 1010.5
20260905180023 20 93 6.4 17.7 0.00 0.00 0.00 77 1010.5
20260905175523 20 89 8.0 22.5 0.00 0.00 0.00 76 1010.4
20260905175022 20 93 4.8 11.3 0.00 0.00 0.00 76 1010.3
20260905174522 20 103 3.2 24.1 0.00 0.00 0.00 75 1010.3
20260905174022 21 46 1.6 4.8 0.00 0.00 0.00 74 1010.1
20260905173522 21 56 3.2 16.1 0.00 0.00 0.00 73 1010.1
20260905173021 21 95 4.8 11.3 0.00 0.00 0.00 72 1010.0
20260905172521 21 62 1.6 4.8 0.00 0.00 0.00 72 1010.0
20260905172021 21 128 3.2 6.4 0.00 0.00 0.00 72 1009.9
20260905171521 21 108 1.6 6.4 0.00 0.00 0.00 73 1009.8
20260905171023 21 57 1.6 6.4 0.00 0.00 0.00 73 1009.8
20260905170522 21 8 1.6 6.4 0.00 0.00 0.00 73 1009.8
20260905170022 21 85 1.6 6.4 0.00 0.00 0.00 73 1009.9
20260905165522 21 323 1.6 3.2 0.00 0.00 0.00 73 1009.8
20260905165022 21 4 1.6 4.8 0.00 0.00 0.00 73 1009.9
20260905164522 21 88 3.2 6.4 0.00 0.00 0.00 74 1009.8
20260905164021 21 91 1.6 9.7 0.00 0.00 0.00 73 1009.8
20260905163521 21 317 1.6 4.8 0.00 0.00 0.00 72 1009.8
20260905163043 21 322 1.6 4.8 0.00 0.00 0.00 72 1009.8
20260905162523 20 305 0.0 3.2 0.00 0.00 0.00 72 1009.9
20260905162023 20 352 1.6 11.3 0.00 0.00 0.00 72 1009.9
20260905161602 20 86 3.2 11.3 0.00 0.00 0.00 73 1009.8
20260905161022 20 355 1.6 3.2 0.00 0.00 0.00 72 1010.0
20260905160522 21 22 1.6 3.2 0.00 0.00 0.00 73 1010.0
20260905160021 21 66 1.6 9.7 0.00 0.00 0.00 72 1009.8
20260905155541 21 78 3.2 12.9 0.00 0.00 0.00 73 1009.8
20260905155021 20 29 1.6 4.8 0.00 0.00 0.00 75 1009.9